Location: G�yn�k
(36.6721°N, 30.5542°E)
Time: 08:52:55
(UTC+00:00)

CZ-2D R/B - Pass Details

Date: 07 June 2020
Orbit: 554 x 638 km, 97.9° (Epoch: 06 July)

Event Time Altitude Azimuth Distance (km) Brightness Sun altitude
Rises 01:24:01 0° 5° (N) 2,865 7.7 -13.0°
Reaches altitude 10° 01:26:14 10° 359° (N) 1,971 6.7 -12.7°
Maximum altitude 01:30:20 46° 286° (WNW) 837 4.0 -12.1°
Enters shadow 01:33:34 16° 218° (SW) 1,636 5.1 -11.6°
